Location: Aalen
(48.8330°N, 10.1000°E)
Time: 19:07:07
(UTC+02:00)

Transit 4A - Pass Details

Date: 03 August 2021
Orbit: 871 x 974 km, 66.8° (Epoch: 16 September)

Event Time Altitude Azimuth Distance (km) Brightness Sun altitude
Rises 09:47:35 0° 322° (NW) 3,477 10.5 36.1°
Reaches altitude 10° 09:50:05 10° 318° (NW) 2,542 9.9 36.5°
Maximum altitude 09:55:47 54° 242° (WSW) 1,075 8.5 37.4°
Drops below altitude 10° 10:01:34 10° 167° (SSE) 2,581 10.7 38.3°
Sets 10:04:09 0° 163° (SSE) 3,534 11.3 38.7°
